Temp
-6 -6 -6 -6 -6 -6 -6 -6 -6 -6 -6 -6 -6 -5 -5 -6 -5 -5 -5 -5 -5 -5 -5 -5 -5 -5 -5 -4 -4 -4 -4 -4 -5 -4 -5 -5 -5 -5 -5 -5 -4 -4 -4
-6 -6 -6 -6 -6 -6 -6 -6 -6 -6 -6 -6 -6 -6 -6 -6 -6 -6 -6 -5 -5 -6 -6 -6 -5 -5 -5 -5 -5 -4 -4 -4 -4 -5 -5 -4 -4 -5 -5 -5 -5 -5 -5
-6 -6 -6 -6 -6 -6 -6 -6 -6 -6 -6 -6 -6 -6 -6 -6 -6 -6 -6 -6 -6 -6 -6 -6 -6 -6 -6 -6 -5 -5 -5 -5 -5 -5 -5 -5 -4 -5 -5 -5 -5 -5 -5
-6 -6 -6 -6 -6 -6 -6 -6 -7 -6 -6 -6 -6 -6 -6 -6 -6 -6 -7 -7 -7 -7 -7 -6 -6 -6 -6 -6 -6 -6 -6 -5 -5 -5 -5 -5 -5 -5 -5 -5 -5 -5 -5
-6 -6 -6 -6 -6 -6 -6 -6 -6 -7 -7 -7 -7 -6 -6 -7 -7 -7 -7 -7 -7 -7 -7 -7 -7 -7 -6 -6 -6 -6 -6 -6 -6 -5 -5 -5 -5 -5 -5 -5 -5 -5 -6
-7 -7 -6 -6 -6 -6 -6 -6 -7 -7 -7 -7 -7 -7 -7 -7 -7 -8 -7 -8 -8 -7 -8 -8 -7 -7 -7 -7 -7 -6 -6 -6 -6 -6 -6 -5 -5 -5 -5 -5 -5 -5 -6
-7 -7 -7 -6 -6 -7 -6 -7 -7 -7 -7 -7 -7 -7 -8 -8 -8 -8 -8 -8 -8 -8 -8 -8 -8 -8 -8 -8 -7 -7 -7 -7 -6 -6 -6 -6 -5 -6 -5 -5 -5 -5 -6
-8 -7 -7 -7 -6 -7 -7 -7 -7 -7 -7 -7 -7 -7 -8 -8 -7 -7 -7 -8 -8 -8 -8 -8 -8 -8 -7 -8 -8 -7 -7 -7 -7 -7 -6 -6 -6 -6 -6 -6 -6 -6 -6
-8 -8 -7 -7 -7 -7 -7 -8 -7 -7 -7 -8 -8 -8 -8 -8 -7 -7 -7 -8 -8 -8 -8 -8 -8 -8 -8 -7 -8 -8 -8 -7 -7 -7 -7 -7 -7 -6 -6 -6 -6 -6 -6
-8 -8 -8 -8 -8 -7 -7 -8 -8 -8 -8 -8 -8 -8 -8 -8 -8 -8 -8 -8 -8 -8 -9 -8 -8 -8 -8 -8 -8 -8 -8 -8 -8 -7 -7 -7 -7 -7 -7 -7 -6 -6 -6
-8 -9 -8 -8 -8 -8 -8 -8 -8 -8 -8 -8 -8 -8 -8 -8 -8 -8 -8 -8 -8 -9 -9 -9 -8 -8 -8 -8 -8 -8 -8 -8 -8 -7 -8 -7 -7 -7 -7 -7 -7 -6 -7
-9 -9 -9 -8 -8 -8 -8 -8 -8 -8 -8 -8 -8 -8 -8 -8 -8 -8 -8 -8 -8 -9 -9 -9 -9 -8 -8 -8 -8 -7 -8 -8 -8 -8 -8 -8 -8 -8 -8 -8 -7 -7 -7
-9 -9 -9 -9 -9 -9 -8 -8 -8 -8 -8 -8 -8 -8 -8 -8 -8 -9 -9 -9 -9 -9 -9 -9 -9 -9 -9 -8 -8 -7 -8 -8 -8 -8 -8 -8 -8 -8 -8 -8 -8 -8 -7
-9 -9 -9 -9 -9 -9 -9 -9 -9 -9 -9 -9 -9 -9 -9 -9 -9 -9 -9 -9 -9 -9 -9 -9 -9 -9 -9 -9 -8 -7 -8 -9 -9 -8 -8 -8 -8 -9 -9 -9 -9 -8 -8
-9 -9 -9 -9 -9 -9 -9 -9 -9 -9 -9 -9 -9 -9 -9 -9 -9 -9 -9 -9 -9 -9 -9 -9 -9 -9 -9 -9 -8 -8 -8 -9 -9 -9 -9 -9 -9 -9 -9 -9 -9 -9 -9
-9 -9 -10 -9 -9 -10 -10 -10 -9 -9 -9 -9 -9 -9 -9 -9 -9 -9 -9 -9 -10 -10 -10 -10 -10 -9 -9 -9 -9 -8 -8 -9 -10 -10 -9 -9 -9 -9 -10 -10 -10 -10 -9
-9 -9 -9 -10 -9 -10 -10 -9 -10 -9 -9 -9 -9 -9 -9 -9 -10 -10 -9 -10 -10 -10 -10 -10 -9 -10 -9 -10 -9 -9 -9 -9 -10 -11 -11 -10 -10 -10 -11 -10 -10 -10 -10
-10 -9 -9 -10 -10 -9 -10 -10 -10 -9 -9 -9 -9 -10 -10 -10 -9 -10 -10 -10 -10 -10 -10 -10 -10 -10 -10 -10 -10 -10 -10 -10 -11 -11 -11 -12 -11 -11 -11 -11 -11 -11 -11
-10 -10 -9 -10 -10 -9 -9 -10 -10 -10 -10 -9 -10 -10 -9 -10 -10 -10 -10 -10 -10 -10 -10 -10 -10 -10 -10 -11 -11 -11 -11 -11 -12 -12 -12 -12 -12 -12 -12 -12 -12 -12 -11
-10 -10 -10 -10 -10 -10 -10 -10 -10 -10 -10 -10 -10 -10 -10 -10 -10 -10 -10 -10 -10 -10 -10 -10 -11 -10 -11 -11 -12 -12 -12 -12 -12 -13 -13 -13 -13 -12 -12 -12 -12 -12 -12
-10 -10 -10 -10 -10 -10 -10 -10 -10 -10 -10 -10 -10 -10 -10 -10 -10 -10 -10 -10 -10 -10 -10 -11 -11 -11 -11 -11 -12 -12 -12 -13 -14 -13 -14 -13 -13 -13 -13 -13 -12 -12 -12
-11 -11 -11 -11 -11 -10 -11 -10 -10 -10 -10 -10 -10 -10 -10 -10 -10 -10 -10 -10 -10 -11 -11 -11 -11 -11 -11 -12 -12 -12 -13 -13 -13 -14 -14 -14 -14 -14 -13 -13 -13 -13 -12
-11 -11 -11 -11 -11 -11 -11 -11 -11 -11 -11 -11 -11 -11 -10 -10 -10 -10 -10 -10 -11 -11 -11 -11 -11 -11 -12 -12 -12 -13 -14 -15 -14 -13 -14 -14 -14 -13 -13 -13 -12 -12 -12
-11 -12 -12 -11 -11 -11 -11 -11 -11 -11 -11 -11 -11 -11 -11 -11 -10 -10 -10 -11 -11 -11 -11 -12 -12 -12 -12 -12 -12 -13 -13 -14 -14 -14 -14 -14 -14 -14 -14 -13 -13 -13 -13
-11 -12 -12 -11 -12 -12 -12 -11 -11 -11 -11 -11 -11 -11 -11 -11 -11 -10 -11 -11 -12 -12 -12 -12 -12 -13 -13 -12 -12 -13 -13 -14 -14 -14 -15 -14 -14 -14 -14 -13 -13 -13 -13
-11 -12 -12 -12 -12 -12 -12 -12 -11 -11 -11 -11 -11 -11 -11 -11 -11 -11 -11 -12 -12 -12 -13 -13 -13 -13 -13 -12 -13 -13 -14 -14 -15 -14 -14 -14 -14 -14 -14 -14 -13 -13 -13
Height
5886 5886 5886 5887 5887 5887 5888 5888 5889 5889 5889 5889 5888 5888 5887 5886 5886 5886 5885 5885 5885 5885 5885 5885 5885 5884 5883 5883 5882 5881 5881 5879 5878 5877 5875 5874 5872 5869 5867 5865 5863 5862 5859
5884 5884 5885 5885 5885 5885 5885 5886 5886 5886 5886 5887 5886 5885 5885 5886 5884 5884 5883 5883 5883 5883 5882 5883 5883 5882 5882 5881 5880 5880 5879 5878 5878 5877 5875 5874 5873 5870 5868 5866 5863 5862 5859
5882 5883 5882 5883 5883 5883 5883 5883 5883 5884 5884 5884 5884 5883 5883 5884 5882 5882 5881 5881 5880 5881 5880 5880 5879 5880 5879 5878 5878 5877 5877 5877 5876 5875 5874 5873 5872 5871 5869 5866 5864 5861 5859
5879 5879 5879 5879 5879 5879 5879 5879 5880 5881 5882 5882 5882 5881 5881 5881 5880 5880 5878 5879 5878 5878 5877 5877 5877 5876 5877 5876 5875 5875 5875 5875 5874 5873 5873 5871 5871 5870 5869 5867 5864 5861 5858
5874 5875 5875 5876 5876 5876 5877 5876 5877 5877 5879 5879 5879 5879 5878 5878 5878 5877 5876 5876 5875 5876 5875 5874 5873 5873 5873 5873 5872 5872 5872 5872 5872 5871 5871 5870 5869 5868 5867 5866 5864 5861 5858
5873 5872 5872 5872 5872 5872 5873 5873 5873 5875 5876 5877 5877 5877 5875 5875 5876 5874 5874 5873 5873 5873 5873 5871 5870 5871 5871 5870 5870 5869 5869 5869 5869 5869 5868 5868 5867 5867 5866 5864 5863 5861 5859
5870 5867 5869 5869 5868 5868 5869 5870 5870 5871 5873 5873 5873 5874 5873 5872 5872 5873 5872 5871 5870 5872 5870 5868 5867 5867 5868 5867 5866 5866 5866 5866 5866 5865 5865 5865 5865 5864 5864 5862 5862 5860 5859
5867 5866 5865 5865 5865 5865 5865 5866 5867 5868 5869 5870 5869 5870 5870 5870 5870 5870 5870 5869 5869 5867 5867 5866 5865 5864 5864 5864 5863 5863 5863 5862 5863 5862 5862 5862 5862 5861 5859 5860 5859 5859 5858
5865 5861 5862 5863 5862 5863 5863 5863 5863 5865 5866 5866 5867 5867 5867 5867 5867 5867 5867 5866 5865 5864 5863 5863 5862 5862 5861 5860 5860 5860 5859 5859 5859 5858 5858 5858 5857 5858 5857 5856 5856 5856 5855
5858 5858 5857 5859 5857 5859 5860 5860 5860 5861 5862 5862 5862 5863 5863 5864 5863 5864 5862 5862 5860 5859 5859 5859 5858 5858 5857 5855 5856 5856 5856 5855 5854 5854 5854 5854 5853 5853 5854 5853 5852 5852 5852
5849 5852 5853 5852 5854 5854 5854 5855 5857 5856 5858 5858 5858 5859 5859 5860 5859 5859 5858 5857 5856 5854 5855 5854 5854 5853 5852 5850 5850 5851 5852 5852 5850 5849 5849 5849 5849 5849 5850 5850 5849 5849 5848
5842 5843 5846 5847 5847 5848 5850 5850 5850 5851 5852 5854 5854 5854 5854 5854 5854 5854 5853 5852 5850 5849 5850 5849 5849 5848 5847 5846 5845 5845 5846 5846 5846 5843 5845 5844 5844 5845 5845 5845 5845 5845 5845
5836 5836 5839 5840 5841 5841 5843 5843 5845 5846 5846 5848 5849 5848 5849 5848 5849 5847 5847 5846 5845 5844 5843 5844 5843 5843 5841 5840 5839 5838 5840 5841 5841 5838 5838 5839 5839 5840 5840 5841 5841 5841 5841
5833 5830 5831 5834 5833 5834 5837 5838 5839 5840 5841 5842 5841 5845 5842 5842 5843 5842 5841 5839 5839 5838 5838 5837 5837 5837 5836 5833 5832 5832 5833 5834 5833 5832 5832 5833 5834 5834 5835 5835 5836 5836 5837
5827 5827 5824 5827 5827 5828 5829 5832 5833 5835 5835 5836 5836 5838 5836 5835 5836 5836 5836 5834 5833 5831 5831 5830 5829 5827 5828 5827 5827 5825 5826 5826 5825 5825 5825 5825 5827 5827 5828 5829 5830 5830 5832
5817 5820 5819 5819 5821 5822 5823 5825 5829 5829 5829 5830 5830 5831 5830 5829 5830 5830 5830 5829 5826 5825 5824 5823 5822 5821 5820 5819 5818 5819 5819 5819 5817 5816 5816 5817 5819 5821 5820 5821 5823 5824 5825
5807 5811 5814 5812 5815 5817 5818 5819 5820 5821 5822 5824 5824 5824 5823 5824 5824 5822 5822 5821 5820 5818 5818 5817 5814 5812 5812 5811 5811 5810 5810 5810 5810 5809 5809 5809 5809 5811 5813 5814 5815 5817 5819
5799 5802 5806 5808 5807 5810 5813 5814 5814 5815 5816 5816 5818 5818 5817 5817 5816 5816 5816 5814 5813 5812 5810 5808 5807 5805 5804 5803 5802 5801 5800 5800 5801 5800 5799 5800 5801 5803 5805 5805 5806 5809 5811
5793 5795 5799 5802 5802 5802 5807 5807 5808 5809 5810 5811 5811 5809 5809 5812 5811 5809 5808 5808 5806 5804 5802 5799 5799 5798 5797 5795 5792 5790 5790 5790 5791 5790 5790 5792 5794 5795 5797 5798 5798 5801 5803
5787 5788 5792 5794 5795 5796 5800 5800 5802 5803 5804 5805 5804 5802 5801 5803 5803 5801 5799 5801 5800 5796 5793 5791 5791 5790 5788 5786 5784 5781 5780 5782 5783 5782 5782 5783 5785 5788 5790 5791 5792 5792 5795
5781 5782 5785 5787 5786 5790 5792 5793 5795 5797 5797 5796 5797 5797 5795 5795 5795 5793 5791 5790 5791 5787 5784 5783 5782 5780 5780 5778 5775 5774 5773 5773 5774 5775 5776 5776 5777 5780 5781 5782 5784 5786 5787
5774 5776 5778 5779 5779 5783 5785 5786 5788 5789 5790 5791 5790 5789 5789 5789 5789 5789 5785 5782 5781 5779 5776 5775 5774 5773 5771 5769 5768 5765 5764 5764 5765 5768 5769 5769 5771 5772 5773 5775 5777 5778 5779
5767 5769 5771 5773 5773 5776 5778 5780 5780 5782 5782 5782 5782 5782 5780 5782 5780 5780 5779 5775 5773 5771 5769 5767 5767 5765 5764 5762 5759 5757 5754 5753 5758 5758 5762 5764 5765 5766 5766 5767 5769 5770 5771
5760 5761 5762 5767 5768 5769 5771 5773 5774 5774 5775 5775 5775 5774 5774 5775 5773 5771 5769 5766 5765 5763 5762 5760 5759 5758 5756 5755 5752 5750 5748 5748 5752 5756 5757 5760 5759 5759 5759 5760 5762 5762 5763
5750 5753 5755 5759 5761 5762 5763 5765 5766 5767 5769 5770 5769 5769 5770 5769 5766 5764 5760 5757 5756 5756 5754 5753 5752 5751 5750 5749 5747 5745 5744 5745 5747 5750 5753 5755 5755 5754 5753 5754 5755 5756 5756
5741 5745 5748 5750 5753 5756 5756 5758 5760 5760 5761 5763 5763 5762 5761 5760 5758 5755 5752 5751 5749 5747 5746 5746 5745 5745 5745 5743 5742 5741 5742 5743 5745 5747 5750 5750 5750 5748 5746 5747 5749 5749 5749
Wind_Speed
12 12 13 13 13 14 14 14 14 13 13 13 13 13 13 11 12 13 12 13 13 13 13 14 14 13 13 14 13 13 13 13 14 14 15 15 13 13 13 13 13 15 16
15 15 16 16 16 17 18 18 17 17 16 17 16 15 15 15 14 15 15 15 15 14 12 12 13 14 15 14 15 15 14 14 15 16 15 15 17 14 13 13 14 15 16
21 20 19 20 19 20 21 21 20 19 18 18 16 14 11 12 9 10 10 12 12 12 12 13 13 13 14 15 16 16 16 16 15 16 16 16 15 17 15 13 12 14 15
23 23 23 23 23 23 23 22 20 18 17 15 13 11 10 10 10 10 8 10 11 10 9 10 11 13 15 15 16 17 18 17 16 18 17 17 16 15 17 15 13 13 14
25 24 26 24 24 25 25 24 21 17 17 15 14 13 12 12 12 10 9 9 9 8 8 10 12 12 14 16 17 17 18 19 18 18 18 18 18 16 15 16 14 13 14
25 26 25 25 24 24 24 23 20 18 17 16 15 15 13 11 11 9 10 11 11 11 11 11 12 14 14 14 15 17 18 19 19 19 19 19 19 19 18 16 14 13 14
24 28 25 25 24 23 23 21 20 20 20 18 16 16 14 12 12 13 12 13 13 12 13 14 16 16 15 16 16 17 17 18 19 19 20 20 19 18 18 18 17 15 12
18 21 22 21 22 23 23 22 22 23 22 21 18 17 16 15 14 15 16 17 19 17 17 18 18 18 19 20 19 19 18 19 21 20 19 20 20 19 19 17 17 16 15
18 22 24 21 20 24 23 24 24 25 24 23 21 19 19 19 18 18 19 21 22 21 20 21 22 23 22 22 22 21 21 22 22 23 22 21 19 20 20 20 17 16 16
28 23 27 22 21 22 25 25 27 28 27 26 24 23 22 21 21 21 22 23 25 25 24 25 26 27 27 25 24 25 25 25 26 25 24 23 22 21 21 21 21 18 16
33 28 27 29 24 26 27 27 27 29 29 28 27 27 25 23 24 25 25 27 28 27 27 28 27 29 29 27 27 26 27 26 28 29 28 26 24 24 22 23 23 21 19
26 32 31 32 31 28 29 28 28 29 29 29 29 29 28 27 28 30 29 29 28 28 29 30 30 30 31 30 29 28 29 27 28 32 30 29 28 26 25 23 24 25 22
19 24 26 31 32 33 31 30 28 28 29 30 31 31 30 29 31 32 31 28 30 30 29 30 31 30 31 32 32 31 31 31 32 35 33 32 30 29 28 26 25 26 26
23 25 25 24 25 28 28 30 26 24 27 28 27 28 29 26 29 28 29 30 31 30 29 30 30 31 32 34 35 33 31 32 34 37 37 35 34 34 32 29 26 27 28
23 25 25 24 24 25 26 24 22 24 25 25 26 29 28 27 29 29 30 30 30 31 31 32 33 33 36 32 31 31 29 31 34 36 35 38 36 36 35 33 30 28 29
23 21 22 23 21 23 24 24 23 27 25 27 27 26 28 28 29 30 30 30 29 32 32 35 36 38 34 31 33 33 32 32 34 36 37 37 37 35 35 35 34 30 30
24 21 19 22 21 23 24 24 25 24 23 26 25 26 30 29 30 30 31 30 29 34 34 36 38 34 34 33 37 38 37 35 34 37 40 40 37 37 34 33 36 35 32
28 24 20 20 23 24 22 24 25 24 23 26 26 28 29 30 32 31 31 31 33 34 37 38 34 34 33 35 37 40 38 38 34 35 39 37 38 35 33 36 37 37 33
33 28 23 22 24 26 23 24 24 24 25 27 29 31 32 30 29 31 31 32 34 36 38 38 33 33 35 35 39 39 37 38 36 34 37 37 33 31 30 31 34 33 34
35 31 25 23 26 26 24 26 25 26 27 28 30 32 33 31 28 31 33 32 35 37 39 36 33 34 33 36 36 41 41 37 34 32 31 33 35 36 31 28 31 33 33
35 33 27 28 28 27 25 27 27 28 29 32 33 32 32 32 30 32 35 36 37 39 34 31 33 32 33 35 36 36 37 37 32 32 32 33 33 33 31 25 27 27 30
34 33 30 28 29 28 28 28 28 29 31 31 32 33 32 32 31 32 34 38 39 31 30 31 30 30 31 27 30 34 39 38 37 39 32 29 31 31 35 38 29 29 29
32 33 32 30 29 27 29 28 29 29 30 31 31 32 33 32 33 34 35 37 32 28 28 30 28 28 29 29 33 32 37 36 28 22 32 23 23 23 28 31 38 35 35
31 31 33 30 29 29 29 29 29 28 28 30 31 32 33 33 36 37 36 32 26 27 28 29 28 29 31 30 25 15 16 22 29 20 22 15 24 24 28 34 30 27 31
31 28 31 31 29 28 30 29 29 29 29 29 29 32 31 33 35 37 32 28 27 28 28 28 28 28 26 24 20 22 15 17 15 21 26 21 22 30 24 23 24 24 24
30 28 28 33 31 31 31 30 30 30 29 27 27 29 31 33 36 34 29 27 28 29 27 28 25 20 19 20 19 14 13 11 18 20 24 20 24 25 23 23 20 21 19
Wind_Direction
266 262 262 262 265 269 272 268 266 268 272 272 273 276 277 278 284 291 294 297 300 301 298 292 287 290 291 297 297 295 301 308 315 321 329 332 331 340 344 341 344 348 350
273 270 269 268 268 269 269 270 271 272 271 272 271 272 276 278 280 285 289 289 293 297 299 303 301 295 290 294 291 290 289 293 304 311 318 325 331 331 337 340 340 345 347
278 275 274 273 272 271 269 270 272 273 272 267 264 263 265 269 277 283 295 299 297 295 296 291 289 295 293 292 290 295 293 293 293 298 305 313 323 330 329 335 336 341 344
277 277 277 276 278 277 272 269 267 269 267 255 248 246 251 261 267 271 277 288 297 309 311 298 295 293 289 287 287 287 291 296 295 294 297 304 312 318 327 326 332 334 341
275 273 272 273 274 276 273 269 266 259 250 241 242 244 252 260 261 262 268 275 288 301 309 298 293 292 290 289 285 284 286 288 291 295 298 301 303 309 314 322 323 327 333
276 273 270 271 268 269 270 266 258 247 238 235 245 253 250 248 253 256 263 269 281 285 289 296 295 291 289 289 292 291 289 286 286 288 292 292 297 303 306 307 314 315 326
275 273 271 266 267 267 265 256 248 240 237 237 244 253 252 246 249 253 262 268 272 274 284 286 286 284 284 286 286 287 292 295 291 287 285 287 290 292 295 301 305 307 310
272 276 274 267 266 262 255 248 243 238 237 244 245 252 254 253 254 265 272 277 278 284 283 283 284 283 281 282 285 284 285 290 292 290 289 285 286 283 285 287 294 300 300
268 268 273 272 269 265 254 247 243 242 240 244 250 252 256 252 260 266 276 280 283 285 284 285 287 287 284 282 282 280 283 283 286 287 289 288 285 282 283 282 280 286 292
263 265 266 266 263 263 258 253 248 246 242 245 248 254 257 259 263 266 273 279 282 285 288 286 288 288 290 288 284 280 279 280 281 281 282 285 286 285 279 278 277 276 280
261 260 264 265 267 258 256 256 254 250 246 247 251 255 260 266 271 275 277 279 281 285 286 288 289 290 291 289 289 286 283 283 283 280 279 281 280 281 280 275 274 272 270
268 262 261 261 263 262 262 258 255 253 252 252 253 257 264 268 272 274 276 277 278 281 283 288 289 290 290 287 285 281 284 282 285 282 275 274 277 279 276 275 272 271 267
273 269 262 255 257 258 254 257 255 255 251 253 255 258 263 267 272 275 273 279 279 279 281 285 287 288 287 285 285 283 280 280 278 275 276 272 272 275 276 272 269 268 266
271 279 273 263 262 257 253 256 250 250 253 252 255 262 264 267 268 271 271 272 277 282 283 284 286 285 283 284 284 284 281 283 278 272 270 269 269 272 271 272 266 266 265
261 264 273 259 259 256 249 252 253 252 257 258 257 260 266 267 269 270 270 272 277 279 282 284 285 286 287 286 287 288 289 286 282 276 275 271 268 269 268 267 265 262 263
262 254 261 261 251 251 242 237 244 253 256 259 258 262 264 266 269 271 274 277 278 280 280 282 286 288 284 284 286 283 289 287 284 282 275 272 270 266 266 262 263 259 258
262 250 250 249 249 246 249 248 250 254 257 259 263 265 268 270 272 276 279 277 278 279 281 282 287 283 283 282 283 285 286 285 282 280 278 276 270 262 262 261 258 258 255
264 253 244 243 249 248 248 255 256 257 260 264 266 266 269 274 277 277 275 278 278 279 282 286 282 281 284 284 282 285 284 286 284 274 275 272 271 267 259 261 259 252 250
263 257 245 245 245 250 253 255 256 260 262 263 266 269 271 271 271 274 276 277 280 283 285 285 277 279 284 283 284 287 284 285 280 272 268 268 268 260 264 255 255 249 246
265 262 254 244 247 247 248 257 259 261 265 270 272 273 275 277 276 277 279 279 283 285 284 280 275 279 282 285 285 282 282 281 278 265 267 267 263 259 262 257 251 249 244
264 266 257 251 245 248 249 253 259 265 270 272 272 273 277 280 281 280 284 284 287 287 281 275 276 280 285 286 285 277 271 272 269 262 269 266 259 258 259 257 251 249 247
260 261 262 256 252 247 248 251 256 261 264 266 272 276 277 278 278 276 282 284 286 277 273 275 279 284 287 289 295 284 275 267 274 259 266 266 255 258 263 262 277 264 254
256 263 260 256 256 251 251 252 258 260 265 272 275 277 279 279 280 281 283 285 279 275 279 280 281 282 283 293 297 284 278 265 248 247 256 253 263 266 266 258 267 264 265
249 250 259 258 254 254 253 252 254 261 266 272 276 278 279 283 282 285 289 283 277 279 280 280 280 277 286 299 285 275 292 250 246 253 261 260 285 277 257 250 263 261 259
246 245 250 254 254 254 258 258 260 261 266 268 268 269 275 277 283 287 285 282 280 278 279 277 276 279 292 289 278 281 281 245 242 242 246 264 271 279 258 246 254 258 260
245 243 239 247 249 251 253 256 261 265 267 268 269 274 279 287 289 288 286 279 276 277 278 274 275 277 277 284 285 269 251 242 241 251 253 266 274 273 265 256 269 256 280